Location: Sevilla
(37.3933°N, 5.9839°W)
Time: 03:41:16
(UTC+02:00)

Explorer 11/Cluster Stage 4 - Visible Passes

Search period start: 13 June 2024 00:00
Search period end: 23 June 2024 00:00
Orbit: 465 x 1217 km, 28.8° (Epoch: 12 June)

Date Brightness Start Highest point End Pass type
(mag) Time Alt. Az. Time Alt. Az. Time Alt. Az.
13 Jun 7.3 04:57:28 23° SSE 04:57:28 23° SSE 04:59:42 10° SE visible
14 Jun 7.8 04:40:58 18° SE 04:40:58 18° SE 04:42:19 10° SE visible
14 Jun 7.4 06:22:57 10° WSW 06:25:47 17° SSW 06:28:22 10° SSE visible
15 Jun 8.4 04:24:36 12° SE 04:24:36 12° SE 04:24:55 10° SE visible
15 Jun 7.5 06:06:18 13° SW 06:08:11 17° SSW 06:10:52 10° SSE visible
16 Jun 7.5 05:50:07 17° SSW 05:50:34 17° SSW 05:53:22 10° SSE visible
17 Jun 9.1 00:04:40 10° SSW 00:05:32 13° SSW 00:05:32 13° SSW visible
17 Jun 7.8 05:34:11 16° S 05:34:11 16° S 05:35:51 10° SSE visible
17 Jun 8.4 23:46:22 10° SSW 23:50:28 22° S 23:50:28 22° S visible
18 Jun 8.1 23:28:07 10° SSW 23:34:15 26° SSE 23:35:10 25° SSE visible
19 Jun 9.0 01:15:36 10° WSW 01:16:55 15° SW 01:16:55 15° SW visible
19 Jun 8.2 23:09:55 10° SW 23:16:20 28° SSE 23:19:33 20° SE visible
20 Jun 8.3 00:57:30 10° WSW 01:01:17 27° SW 01:01:17 27° SW visible
20 Jun 8.2 22:51:45 10° SW 22:58:24 29° SSE 23:03:36 14° ESE visible
21 Jun 7.8 00:39:24 10° WSW 00:45:19 38° SSW 00:45:19 38° SSW visible
21 Jun 8.2 22:33:37 10° SW 22:40:26 31° SSE 22:46:55 10° ESE visible
22 Jun 7.5 00:21:19 10° WSW 00:28:39 42° S 00:29:03 42° S visible
22 Jun 9.3 02:10:05 10° WSW 02:10:44 12° WSW 02:10:44 12° WSW visible
22 Jun 8.2 22:15:32 10° SW 22:22:28 33° SSE 22:29:10 10° ESE visible
